[[{"header":{"parameterUnit":"m.s-1","parameterCategory":1,"la1":30.2991,"la2":30.254,"lo1":-89.0895,"lo2":-89.0444,"dy":0.0017,"dx":0.0017,"nx":28,"ny":28,"refTime":"2024-06-28T21:00:00:Z","depth":0,"parameterNumber":2,"parameterNumberName":"U-component_of_WINDS"},"data":[0,0,0,0,0,0,0,0,0,0,0,0,0,0,0,0,0,0,0,0,0,0,0,0,0,0,0,0,0,0,0,0,0,0,0,0,0,0,0,0,0,0,0,0,0,0,0,0,0,0,0,0,0,0,0,0,0,0,3.102,3.102,0,3.1083,3.1083,3.1084,3.1055,3.1053,3.1052,3.105,3.1118,3.1122,3.1125,0,0,0,0,0,0,0,0,0,0,0,0,0,3.0877,3.088,3.1019,3.102,3.1021,3.1083,3.1083,3.1084,3.1055,3.1053,3.1051,3.105,3.1117,3.1121,3.1125,0,0,0,0,0,0,0,0,0,0,0,0,0,3.094,3.0881,3.1019,3.1014,3.1014,3.1082,3.1084,3.1085,3.1056,3.1053,3.1051,3.1049,3.1116,3.1121,3.1126,3.1204,0,0,3.1141,3.1143,0,0,0,0,0,0,0,0,3.0936,3.0945,3.1014,3.1014,3.1015,3.1058,3.1058,3.1125,3.1056,3.104,3.105,3.1048,3.1101,3.1107,3.1124,3.1207,3.121,3.1141,3.1144,3.1146,3.1148,0,0,0,0,0,0,0,3.0932,3.0942,3.1045,3.1015,3.1015,3.101,3.1016,3.1071,3.1083,3.1041,3.1039,3.1047,3.11,3.1119,3.1125,3.1211,3.1141,3.1145,3.1148,3.115,3.1362,3.1365,0,0,0,0,0,0,3.0927,3.0939,3.1043,3.1046,3.0969,3.1014,3.1021,3.1047,3.1082,3.1085,3.1049,3.1045,3.1112,3.1119,3.1127,3.1221,3.1146,3.1151,3.1154,3.136,3.1363,3.1366,0,0,0,0,0,0,3.0924,3.0937,3.104,3.0992,3.1005,3.1019,3.1048,3.1049,3.1068,3.1088,3.109,3.1066,3.111,3.1121,3.1185,3.1223,3.1153,3.1158,3.1356,3.1361,3.1364,3.1409,0,0,0,0,0,0,3.092,3.0936,3.0965,3.0993,3.1007,3.1095,3.1051,3.1052,3.1076,3.1072,3.1104,3.1107,3.1109,3.1178,3.119,3.1228,3.1161,3.1353,3.1358,3.1363,3.1404,3.1414,3.1422,0,0,0,0,0,3.0915,3.0976,3.0966,3.0979,3.1044,3.1098,3.1106,3.1106,3.1079,3.1109,3.1122,3.1106,3.1217,3.1185,3.1198,3.1239,3.1351,3.1357,3.1363,3.14,3.1412,3.1422,0,0,0,0,0,0,3.0952,3.0979,3.0969,3.104,3.1067,3.1093,3.113,3.1119,3.1154,3.1149,3.1148,3.1156,3.1222,3.1237,3.12,3.1317,3.128,3.1289,3.1304,3.1316,3.1325,3.1319,3.1166,0,0,0,0,0,3.0969,3.1009,3.1031,3.1091,3.1105,3.1116,3.1139,3.1137,3.1165,3.1176,3.1194,3.1222,3.1264,3.1291,3.133,3.1407,3.1413,3.1442,3.1451,3.1458,3.1466,3.1507,3.152,3.1385,3.1385,3.1385,0,0,3.1003,3.1023,3.1048,3.1099,3.112,3.1162,3.1125,3.1172,3.1204,3.1183,3.1244,3.1259,3.1291,3.1362,3.1394,3.1377,3.1505,3.1466,3.1472,3.1475,3.1515,3.1527,3.1539,3.1389,3.1389,3.1388,0,0,3.1087,3.1106,3.1158,3.1179,3.121,3.1217,3.123,3.1258,3.1266,3.1327,3.1313,3.1352,3.1423,3.1446,3.1467,3.1562,3.1548,3.1575,3.1622,3.1662,3.1673,3.1682,3.1715,3.1727,3.1582,3.1582,3.1582,0,3.1125,3.1188,3.1187,3.1234,3.1258,3.1241,3.1294,3.1315,3.1358,3.1375,3.1354,3.1443,3.1464,3.154,3.1563,3.1581,3.1596,3.157,3.1671,3.1681,3.169,3.1721,3.1733,3.1585,3.1585,3.1585,3.1584,0,3.1234,3.1278,3.1317,3.1357,3.1385,3.1436,3.1443,3.1471,3.1467,3.1477,3.154,3.1564,3.1608,3.1626,3.1623,3.1702,3.169,3.1671,3.1634,3.1705,3.1735,3.1747,3.1589,3.1588,3.1587,3.1587,0,0,3.134,3.138,3.1394,3.1413,3.1446,3.1481,3.1532,3.1573,3.1598,3.1629,3.1671,3.1732,3.1714,3.1739,3.1738,3.1774,3.1847,3.1751,3.1752,3.1767,3.1935,3.1948,3.1961,3.1839,3.1841,3.1843,3.1932,0,3.1425,3.1512,3.1513,3.1593,3.1634,3.162,3.1664,3.169,3.1701,3.1738,3.175,3.1792,3.1767,3.1781,3.1816,3.183,3.188,3.1824,3.1878,3.188,3.1869,3.1977,3.1991,3.2073,3.1943,3.1945,3.1947,0,3.1536,3.1569,3.1653,3.1681,3.1698,3.1738,3.1776,3.1812,3.1842,3.1847,3.1875,3.1869,3.1922,3.1884,3.1957,3.1919,3.1942,3.1952,3.1955,3.1959,3.1916,3.1982,3.2099,3.2111,3.1965,3.1963,3.1962,0,3.1603,3.167,3.1728,3.1745,3.1779,3.1807,3.1824,3.1851,3.1876,3.1911,3.1927,3.1968,3.199,3.2022,3.2028,3.2001,3.2101,3.2064,3.2107,3.2107,3.2127,3.2125,3.2248,3.2144,3.2144,3.2144,3.2144,0,3.1697,3.1749,3.1759,3.1795,3.1853,3.1855,3.1913,3.1927,3.1952,3.1991,3.1982,3.2019,3.2025,3.2065,3.207,3.2129,3.214,3.2145,3.2146,3.2145,3.2144,3.2159,3.2152,3.2147,3.2147,3.2146,3.2145,0,3.1782,3.1791,3.1854,3.1882,3.189,3.1931,3.1956,3.1991,3.2001,3.2051,3.2062,3.2079,3.2124,3.2134,3.2188,3.2192,3.2262,3.2258,3.2251,3.225,3.2291,3.2287,3.2426,3.2444,3.2331,3.2332,3.2333,0,3.184,3.1879,3.1911,3.1936,3.1954,3.1994,3.202,3.2024,3.2052,3.2089,3.212,3.2164,3.22,3.2273,3.2291,3.2332,3.2328,3.2374,3.2334,3.2332,3.2327,3.2324,3.2328,3.2381,3.2382,3.2383,3.2384,0,3.1942,3.1945,3.1981,3.202,3.2051,3.2082,3.2111,3.2133,3.2141,3.2173,3.2218,3.2246,3.2301,3.2346,3.2388,3.2405,3.2396,3.2397,3.2409,3.2407,3.2401,3.2404,3.227,3.2393,3.2392,3.2392,3.2391,3.2391,3.2014,3.2048,3.2076,3.2117,3.214,3.2168,3.2202,3.2217,3.2255,3.2299,3.23,3.235,3.2381,3.2436,3.2456,3.2496,3.2482,3.2499,3.2503,3.2507,3.251,3.2397,3.2504,3.2504,3.2504,3.2504,3.2503,0,3.2114,3.2131,3.217,3.2211,3.2244,3.2233,3.2265,3.2294,3.2338,3.2366,3.2401,3.2455,3.2498,3.2519,3.2562,3.259,3.2587,3.2601,3.2598,3.2602,3.2521,3.2506,3.2603,3.2603,3.2603,3.2603,3.2602,3.2602,3.2169,3.2226,3.2233,3.2302,3.232,3.2368,3.2387,3.2413,3.2436,3.2495,3.2531,3.2544,3.257,3.2615,3.2655,3.266,3.2676,3.2691,3.2695,3.2618,3.2608,3.2598,3.2584,3.2695,3.2695,3.2772,3.2773,3.2773]},{"header":{"parameterUnit":"m.s-1","parameterCategory":1,"la1":30.2991,"la2":30.254,"lo1":-89.0895,"lo2":-89.0444,"dy":0.0017,"dx":0.0017,"nx":28,"ny":28,"refTime":"2024-06-28T21:00:00:Z","depth":0,"parameterNumber":3,"parameterNumberName":"V-component_of_WINDS"},"data":[0,0,0,0,0,0,0,0,0,0,0,0,0,0,0,0,0,0,0,0,0,0,0,0,0,0,0,0,0,0,0,0,0,0,0,0,0,0,0,0,0,0,0,0,0,0,0,0,0,0,0,0,0,0,0,0,0,0,4.7198,4.7198,0,4.7178,4.7177,4.7177,4.7169,4.7169,4.7169,4.7169,4.7144,4.7144,4.7143,0,0,0,0,0,0,0,0,0,0,0,0,0,4.7226,4.7225,4.7198,4.7198,4.7198,4.7178,4.7177,4.7177,4.7169,4.7169,4.7169,4.7169,4.7145,4.7144,4.7143,0,0,0,0,0,0,0,0,0,0,0,0,0,4.721,4.7225,4.7198,4.7191,4.719,4.7178,4.7177,4.7177,4.7169,4.7169,4.7169,4.7169,4.7145,4.7144,4.7143,4.7135,0,0,4.714,4.7139,0,0,0,0,0,0,0,0,4.7211,4.7209,4.7192,4.7191,4.719,4.7176,4.7178,4.7163,4.7169,4.7177,4.7169,4.7169,4.7155,4.7153,4.7149,4.7134,4.7133,4.714,4.7139,4.7139,4.7138,0,0,0,0,0,0,0,4.7212,4.721,4.719,4.7192,4.7191,4.7187,4.7185,4.7175,4.7165,4.7176,4.7175,4.7173,4.7154,4.715,4.7148,4.7132,4.714,4.7139,4.7138,4.7138,4.7108,4.7108,0,0,0,0,0,0,4.7215,4.7211,4.719,4.7189,4.7201,4.7187,4.7185,4.718,4.7165,4.7163,4.7173,4.7173,4.7151,4.7149,4.7147,4.7136,4.7139,4.7138,4.7137,4.7108,4.7108,4.7108,0,0,0,0,0,0,4.7216,4.7213,4.7191,4.72,4.7197,4.7186,4.7182,4.718,4.7176,4.7163,4.7161,4.7171,4.7151,4.7149,4.7138,4.7135,4.7137,4.7136,4.7108,4.7108,4.7108,4.7113,0,0,0,0,0,0,4.7216,4.7214,4.7212,4.72,4.7197,4.7184,4.7182,4.7179,4.7174,4.7174,4.7161,4.7158,4.7151,4.7139,4.7137,4.7133,4.7135,4.7108,4.7108,4.7108,4.7113,4.7113,4.7113,0,0,0,0,0,4.7217,4.7214,4.7211,4.7209,4.7194,4.7184,4.7182,4.7174,4.7174,4.7171,4.7163,4.7159,4.7136,4.7138,4.7135,4.7132,4.7109,4.7108,4.7108,4.7114,4.7113,4.7113,0,0,0,0,0,0,4.7224,4.7212,4.721,4.7202,4.7194,4.7182,4.7179,4.7175,4.7166,4.7166,4.7156,4.7153,4.7143,4.7136,4.7139,4.7122,4.7122,4.7121,4.7127,4.7127,4.7127,4.7128,4.7135,0,0,0,0,0,4.7225,4.7219,4.7208,4.7202,4.7199,4.7189,4.7185,4.718,4.7171,4.7167,4.7158,4.7148,4.7138,4.7132,4.7123,4.7112,4.7108,4.7108,4.7108,4.7108,4.7107,4.7099,4.7098,4.7106,4.7106,4.7106,0,0,4.7226,4.7219,4.7216,4.7204,4.7197,4.7189,4.7187,4.7179,4.7173,4.7165,4.7155,4.7148,4.7136,4.7125,4.712,4.7119,4.7104,4.7107,4.7108,4.7107,4.7099,4.7098,4.7097,4.7106,4.7106,4.7106,0,0,4.7225,4.7219,4.7213,4.7207,4.7196,4.719,4.7189,4.7177,4.7172,4.7162,4.7155,4.7147,4.7131,4.7122,4.7116,4.7109,4.7105,4.7106,4.7106,4.7098,4.7098,4.7097,4.7093,4.7092,4.7106,4.7106,4.7106,0,4.7227,4.7217,4.7211,4.7203,4.7197,4.7191,4.7184,4.7177,4.7164,4.7159,4.7159,4.7138,4.713,4.7116,4.7114,4.7109,4.7106,4.7108,4.7099,4.7098,4.7097,4.7093,4.7092,4.7106,4.7106,4.7106,4.7106,0,4.722,4.7213,4.7209,4.7198,4.7191,4.7184,4.7175,4.7169,4.7164,4.7157,4.7145,4.7135,4.7122,4.7119,4.7114,4.7103,4.7103,4.7101,4.71,4.7097,4.7093,4.7092,4.7106,4.7106,4.7106,4.7106,0,0,4.7223,4.7207,4.7206,4.72,4.7188,4.7181,4.7173,4.7161,4.7156,4.7146,4.7138,4.7124,4.7121,4.7114,4.7108,4.7101,4.7094,4.7099,4.7099,4.7098,4.708,4.7081,4.708,4.7091,4.7091,4.7091,4.7081,0,4.7219,4.7206,4.7199,4.7187,4.7179,4.7172,4.7165,4.7155,4.7148,4.7139,4.713,4.712,4.7118,4.7114,4.7107,4.7097,4.7091,4.7098,4.7081,4.7081,4.7084,4.7078,4.708,4.7071,4.7079,4.7079,4.7079,0,4.7214,4.7205,4.7193,4.718,4.7177,4.717,4.7158,4.7151,4.7139,4.7134,4.7125,4.7119,4.7107,4.7107,4.7091,4.7095,4.7088,4.7082,4.7081,4.7079,4.708,4.7075,4.7069,4.7067,4.7077,4.7077,4.7077,0,4.7216,4.7201,4.7192,4.7187,4.7172,4.7167,4.7161,4.7149,4.7142,4.7131,4.7126,4.7114,4.7106,4.7096,4.7085,4.7087,4.7069,4.7069,4.7063,4.7063,4.7059,4.7059,4.7051,4.7056,4.7056,4.7056,4.7056,0,4.7212,4.7205,4.7192,4.7186,4.7177,4.7168,4.7159,4.7151,4.7141,4.7132,4.7125,4.7116,4.7103,4.7092,4.7084,4.707,4.7067,4.7061,4.7059,4.7061,4.7062,4.7056,4.7056,4.7055,4.7056,4.7056,4.7056,0,4.7213,4.7205,4.7194,4.7181,4.7177,4.7171,4.7158,4.7151,4.7143,4.7132,4.7129,4.7115,4.7102,4.7091,4.7073,4.7067,4.7052,4.705,4.7057,4.7055,4.705,4.705,4.7036,4.7033,4.7041,4.7041,4.7041,0,4.7211,4.7205,4.7191,4.7186,4.7179,4.717,4.7163,4.7153,4.7145,4.7131,4.7125,4.7111,4.71,4.7078,4.7066,4.7051,4.7048,4.7044,4.7046,4.7048,4.7046,4.7047,4.7045,4.7044,4.7044,4.7044,4.7044,0,4.7208,4.7204,4.7195,4.7184,4.7176,4.7166,4.7156,4.7151,4.7139,4.7131,4.7118,4.7109,4.709,4.7076,4.706,4.7051,4.7044,4.7043,4.7041,4.7043,4.7047,4.7043,4.7055,4.7044,4.7044,4.7044,4.7044,4.7044,4.7207,4.7201,4.719,4.7179,4.7171,4.7162,4.7154,4.7145,4.7134,4.7119,4.7114,4.7099,4.7085,4.7063,4.7054,4.7041,4.704,4.7037,4.7036,4.7036,4.7035,4.705,4.7038,4.7038,4.7038,4.7038,4.7038,0,4.7203,4.7195,4.7186,4.7172,4.7163,4.7159,4.7148,4.714,4.7128,4.7116,4.7105,4.7088,4.7074,4.706,4.7044,4.7037,4.7033,4.7033,4.7033,4.703,4.7038,4.7041,4.7036,4.7036,4.7036,4.7036,4.7036,4.7036,4.72,4.7189,4.7183,4.7167,4.7159,4.7146,4.7139,4.713,4.712,4.7103,4.7091,4.7082,4.7069,4.7052,4.7037,4.7033,4.7027,4.7027,4.7022,4.703,4.703,4.703,4.7033,4.7026,4.7026,4.7015,4.7015,4.7015]}]]